Time,TemperatureF,DewpointF,PressureIn,WindDirection,WindDirectionDegrees,WindSpeedMPH,WindSpeedGustMPH,Humidity,HourlyPrecipIn,Conditions,Clouds,dailyrainin,SolarRadiationWatts/m^2,SoftwareType,DateUTC
2013-02-21 00:37:00,36.0,4.0,-100.00,North,4,4.0,10.0,26,0.00,,,0.00,0.000000,,2013-02-21 05:37:00,
2013-02-21 01:31:00,34.0,7.0,-100.00,NNE,19,3.0,7.0,32,0.00,,,0.00,0.000000,,2013-02-21 06:31:00,
2013-02-21 02:32:00,35.0,7.0,-100.00,NW,315,3.0,7.0,30,0.00,,,-99.99,0.000000,,2013-02-21 07:32:00,
2013-02-21 03:32:00,33.0,8.0,-100.00,WSW,253,2.0,4.0,34,0.00,,,-99.99,0.000000,,2013-02-21 08:32:00,
2013-02-21 04:32:00,34.0,11.0,-100.00,NNW,347,2.0,4.0,38,0.00,,,0.00,0.000000,,2013-02-21 09:32:00,
2013-02-21 04:42:00,34.0,11.0,-100.00,NNW,347,2.0,4.0,38,0.00,,,0.00,0.000000,,2013-02-21 09:42:00,
2013-02-21 04:52:00,34.0,11.0,-100.00,NNW,347,2.0,4.0,38,0.00,,,0.00,0.000000,,2013-02-21 09:52:00,
2013-02-21 05:31:00,33.0,10.0,-100.00,SW,230,2.0,5.0,38,0.00,,,0.00,0.000000,,2013-02-21 10:31:00,
2013-02-21 06:31:00,31.0,10.0,-100.00,North,1,2.0,5.0,40,0.00,,,0.00,0.000000,,2013-02-21 11:31:00,
2013-02-21 07:32:00,32.0,5.0,-100.00,North,356,2.0,3.0,31,0.00,,,0.00,0.000000,,2013-02-21 12:32:00,
2013-02-21 09:32:00,45.0,4.0,-100.00,SW,222,3.0,5.0,18,-99.99,,,0.00,252.000000,,2013-02-21 14:32:00,
2013-02-21 10:32:00,48.0,8.0,-100.00,SSW,199,4.0,7.0,19,-99.99,,,0.00,506.000000,,2013-02-21 15:32:00,
2013-02-21 11:32:00,52.0,7.0,-100.00,SW,222,5.0,9.0,16,0.00,,,0.00,705.000000,,2013-02-21 16:32:00,
2013-02-21 12:32:00,56.0,10.0,-100.00,SSW,213,5.0,10.0,16,0.00,,,0.00,843.000000,,2013-02-21 17:32:00,
2013-02-21 12:42:00,56.0,10.0,-100.00,SSW,213,5.0,10.0,16,0.00,,,0.00,843.000000,,2013-02-21 17:42:00,
2013-02-21 12:52:00,56.0,10.0,-100.00,SSW,213,5.0,10.0,16,0.00,,,0.00,843.000000,,2013-02-21 17:52:00,
2013-02-21 13:02:00,56.0,10.0,-100.00,SSW,213,5.0,10.0,16,0.00,,,0.00,843.000000,,2013-02-21 18:02:00,
2013-02-21 14:32:00,61.0,11.0,-100.00,SSW,204,6.0,10.0,14,-99.99,,,0.00,865.000000,,2013-02-21 19:32:00,
2013-02-21 15:32:00,60.0,15.0,-100.00,SSW,206,6.0,10.0,17,0.00,,,0.00,573.000000,,2013-02-21 20:32:00,
2013-02-21 16:32:00,61.0,17.0,-100.00,East,101,3.0,9.0,18,0.00,,,0.00,413.000000,,2013-02-21 21:32:00,
2013-02-21 16:42:00,61.0,17.0,-100.00,East,101,3.0,9.0,18,0.00,,,0.00,413.000000,,2013-02-21 21:42:00,
2013-02-21 16:52:00,61.0,17.0,-100.00,East,101,3.0,9.0,18,0.00,,,0.00,413.000000,,2013-02-21 21:52:00,
2013-02-21 17:32:00,57.0,19.0,-100.00,South,172,4.0,9.0,22,0.00,,,0.00,176.000000,,2013-02-21 22:32:00,
2013-02-21 18:32:00,55.0,18.0,-100.00,SSE,159,5.0,11.0,23,0.00,,,0.00,35.000000,,2013-02-21 23:32:00,
2013-02-21 18:42:00,55.0,18.0,-100.00,SSE,159,5.0,11.0,23,0.00,,,0.00,35.000000,,2013-02-21 23:42:00,
2013-02-21 18:53:00,55.0,18.0,-100.00,SSE,159,5.0,11.0,23,0.00,,,0.00,35.000000,,2013-02-21 23:53:00,
2013-02-21 19:32:00,54.0,19.0,-100.00,SSE,160,3.0,12.0,25,0.00,,,0.00,1.000000,,2013-02-22 00:32:00,
2013-02-21 19:42:00,54.0,19.0,-100.00,SSE,160,3.0,12.0,25,0.00,,,0.00,1.000000,,2013-02-22 00:42:00,
2013-02-21 19:52:00,54.0,19.0,-100.00,SSE,160,3.0,12.0,25,0.00,,,0.00,1.000000,,2013-02-22 00:52:00,
2013-02-21 20:01:00,54.0,19.0,-100.00,SSE,160,3.0,12.0,25,0.00,,,0.00,1.000000,,2013-02-22 01:01:00,
2013-02-21 21:32:00,43.0,41.0,-100.00,NE,56,4.0,10.0,91,-99.99,,,0.19,0.000000,,2013-02-22 02:32:00,
2013-02-21 21:42:00,43.0,41.0,-100.00,NE,56,4.0,10.0,91,-99.99,,,0.19,0.000000,,2013-02-22 02:42:00,
2013-02-21 21:52:00,43.0,41.0,-100.00,NE,56,4.0,10.0,91,-99.99,,,0.19,0.000000,,2013-02-22 02:52:00,
2013-02-21 22:02:00,43.0,41.0,-100.00,NE,56,4.0,10.0,91,-99.99,,,0.19,0.000000,,2013-02-22 03:02:00,
2013-02-21 22:32:00,42.0,40.0,-100.00,NE,46,2.0,9.0,91,0.12,,,0.31,0.000000,,2013-02-22 03:32:00,
2013-02-21 22:42:00,42.0,40.0,-100.00,NE,46,2.0,9.0,91,0.12,,,0.31,0.000000,,2013-02-22 03:42:00,
2013-02-21 22:52:00,42.0,40.0,-100.00,NE,46,2.0,9.0,91,0.12,,,0.31,0.000000,,2013-02-22 03:52:00,
2013-02-21 23:02:00,42.0,40.0,-100.00,NE,46,2.0,9.0,91,0.12,,,0.31,0.000000,,2013-02-22 04:02:00,
2013-02-21 23:32:00,42.0,39.0,-100.00,NNW,347,2.0,7.0,89,0.02,,,0.33,0.000000,,2013-02-22 04:32:00,
2013-02-21 23:42:00,42.0,39.0,-100.00,NNW,347,2.0,7.0,89,0.02,,,0.33,0.000000,,2013-02-22 04:42:00,
2013-02-21 23:52:00,42.0,39.0,-100.00,NNW,347,2.0,7.0,89,0.02,,,0.33,0.000000,,2013-02-22 04:52:00,